Location: Wiesbaden
(50.0830°N, 8.2500°E)
Time: 04:30:41
(UTC+02:00)

ISS - Pass Details

Date: 02 April 2020
Orbit: 417 x 423 km, 51.6° (Epoch: 29 March)

Event Time Altitude Azimuth Distance (km) Brightness Sun altitude
Rises 21:46:23 0° 285° (WNW) 2,362 1.6 -16.6°
Reaches altitude 10° 21:48:45 10° 271° (W) 1,496 -0.1 -16.9°
Maximum altitude 21:51:28 23° 216° (SW) 935 -2.0 -17.3°
Enters shadow 21:52:21 21° 192° (SSW) 1,007 -2.0 -17.4°
